CZ-10B R/B, 69974

Orbit data source: Space-Track

CZ-10B R/B, 69974 is space debris in LEO originally from a launch on Fri, 10 Jul 2026 UTC launched from the Wenchang Satellite Launch Center (WSC). Debris objects in space refer to the collection of defunct objects orbiting the Earth. Examples of debris include non-operational satellites, rocket bodies, and fragments generated from explosions, collisions, or faulty payload assembly.

Loading next visibility...
Identifier
69974, 2026-158C
Orbit
LEO
Country
Flag of CNCN / PRC
Related business
Manufacturer
CALT
Mission
Spacecraft
Bus & Motor
Unknown
Mass
~5,000 kg wet, ~5,000 kg dry
Launch date (UTC)
2026-07-10 (1 month ago)
Launch vehicle
Unknown
Launch site
Wenchang Satellite Launch Center (WSC)
Object type
Payload
Rocket body
Debris
Shape & HBR
CYL, 8.0 m
Radar Cross Section
Large (>1 m²)

Expand to show TLE details & history
Last TLE update: 15 hours ago

TLE from 15 hours ago
0 CZ-10B R/B
1 69974U 26158C   26228.47925202  .00000068  00000-0  44521-4 0  9992
2 69974  49.9629 133.6830 0197859 321.6203  37.0788 14.64321945  5452
Epoch: 2026-08-16T11:30Z
TLE epoch observation values (Epoch: 2026-08-16T11:30:07.374Z)
Latitude
-0.00003°
Longitude
-3.72293°
Altitude
569.421 km
Speed
7.637 km/s
True Right ascension
08h 54m 43s
True Declination
0° 00' 00"
Sunlit
Object was in daylight at epoch
Visualization orbit readout
Latitude
Unknown
Longitude
Unknown
Altitude
Unknown
Speed
Unknown
Apparent Right ascension
Unknown
Apparent Declination
Unknown
Sunlit
N/A
Visualization observer readout
Local Sidereal Time
16:48:00
Azimuth
Unknown
Elevation
Unknown
Doppler factor
Unknown
Orbital elements
Apogee altitude
819.663 km
Perigee altitude
540.36 km
Semi-major axis
7,058.148 km
Eccentricity
0.01979
Inclination
49.9629°
RAAN
133.683°
Arg. of periapsis
321.6203°
True anomaly
38.47314°
Mean anomaly
37.0788°
Eccentric anomaly
37.7732°
Mean motion
3.66022 °/min
Orbital period
98.35 mins
BSTAR
0.000044521
Loading maneuver chart data...
Computing Atmospheric mass density...
Loading historical data...
Loading historical data...
Loading historical data...
Loading historical data...
Loading historical data...
Loading historical data...
Loading historical data...
Other satellites on launch #158 in the year 2026 (2026-07-10 UTC)

Documentation

Showing up to 5 results
|